Location: Observatorio Las Palmas
(29.0667°N, 110.9333°W)
Time: 21:30:36
(UTC-07:00)

Hubble Space Telescope - Visible Passes

Search period start: 24 August 2016 00:00
Search period end: 03 September 2016 00:00
Orbit: 539 x 543 km, 28.5° (Epoch: 24 August)

Date Brightness Start Highest point End Pass type
(mag) Time Alt. Az. Time Alt. Az. Time Alt. Az.
24 Aug 0.7 19:40:34 10° W 19:44:43 79° S 19:47:42 18° E visible
24 Aug 3.3 21:21:56 10° W 21:23:04 17° W 21:23:04 17° W visible
25 Aug 0.8 19:30:50 10° W 19:34:59 73° S 19:38:23 15° ESE visible
25 Aug 3.1 21:12:18 10° W 21:13:46 19° WSW 21:13:46 19° WSW visible
26 Aug 0.9 19:21:06 10° W 19:25:14 66° S 19:29:06 11° ESE visible
26 Aug 2.9 21:02:44 10° W 21:04:29 20° WSW 21:04:29 20° WSW visible
27 Aug 1.1 19:11:24 10° W 19:15:28 57° SSW 19:19:33 10° ESE visible
27 Aug 2.9 20:53:15 10° WSW 20:55:13 19° SW 20:55:13 19° SW visible
28 Aug 3.0 20:43:55 10° WSW 20:46:00 16° SW 20:46:00 16° SW visible
29 Aug 3.2 20:34:51 10° SW 20:36:45 13° SSW 20:36:50 13° SSW visible
